Overview Statistics Trail Chart Weather Telemetry Raw packets
 

This is the latest recevied weather packets stored in our database for station/object KF0WJA. If no packets are shown the sender has not sent any weather packets the latest 10 day(s).

<< 42 43 44 45 46 47 48 >>
Time Temp. Humidity Pressure Rain* Wind** Luminosity Snow
1788376794 37.22° C 35% 1016.5 hPa 0 mm - 701 W/m² -
1788376490 37.22° C 36% 1016.6 hPa 0 mm - 711 W/m² -
1788376185 37.78° C 35% 1016.6 hPa 0 mm - 694 W/m² -
1788375880 37.22° C 36% 1016.8 hPa 0 mm - 682 W/m² -
1788375576 36.67° C 35% 1016.9 hPa 0 mm - 684 W/m² -
1788375272 37.22° C 36% 1017 hPa 0 mm - 675 W/m² -
1788374967 37.22° C 37% 1016.9 hPa 0 mm - 688 W/m² -
1788374662 36.67° C 38% 1016.8 hPa 0 mm - 688 W/m² -
1788374358 36.67° C 38% 1017 hPa 0 mm - 685 W/m² -
1788374057 37.22° C 38% 1017 hPa 0 mm - 684 W/m² -
1788373749 36.67° C 39% 1017.1 hPa 0 mm - 168 W/m² -
1788373446 36.67° C 39% 1017.2 hPa 0 mm - 668 W/m² -
1788373142 36.11° C 40% 1017.4 hPa 0 mm - 662 W/m² -
1788372837 35.56° C 40% 1017.2 hPa 0 mm - 666 W/m² -
1788372537 36.11° C 40% 1017.5 hPa 0 mm - 646 W/m² -
1788372232 36.11° C 40% 1017.6 hPa 0 mm - 635 W/m² -
1788371928 36.11° C 41% 1017.6 hPa 0 mm - 616 W/m² -
1788371623 36.11° C 39% 1017.6 hPa 0 mm - 639 W/m² -
1788371319 35.56° C 40% 1017.5 hPa 0 mm - 666 W/m² -
1788371016 36.11° C 40% 1017.7 hPa 0 mm - 684 W/m² -
1788370711 36.11° C 41% 1017.8 hPa 0 mm - 674 W/m² -
1788370410 35.56° C 42% 1017.7 hPa 0 mm - 672 W/m² -
1788370104 35.56° C 41% 1017.7 hPa 0 mm - 663 W/m² -
1788369799 35.56° C 40% 1018.2 hPa 0 mm - 675 W/m² -
1788369494 35.56° C 43% 1018.1 hPa 0 mm - 674 W/m² -

* Rain latest hour (hover to see other rain measurements)
** Current wind speed in m/s (hover to see current wind gust speed)